When you browse on this site, cookies collect data to enhance your experience and personalize the content and advertising you see.
Visit our Privacy Policy to learn more. By continuing to use the site, you agree to this use of cookies and data.
  • en Belgique
  • Liste des pays
  • À 7 jours
  • Température de l'eau
  • Carte satellitaire
  • Carte météo
  • Widgets météo
  • user-avatar
    Se connecter

    Météo par heure à Rachanie

    Ce jour, 18 Novembre, Dimanche

    Heure Température Précipitation Vent Pression Humidité
    00:00 -3°C° 0 mm 2 m/s 756 mmHg 52%
    01:00 -1°C° 0 mm 1 m/s 755 mmHg 52%
    02:00 -1°C° 0 mm 1 m/s 755 mmHg 51%
    03:00 -1°C° 0 mm 1 m/s 754 mmHg 51%
    04:00 -2°C° 0 mm 0 m/s 753 mmHg 51%
    05:00 -2°C° 0 mm 0 m/s 753 mmHg 51%
    06:00 -1°C° 0 mm 1 m/s 752 mmHg 50%
    07:00 -1°C° 0 mm 1 m/s 752 mmHg 50%
    08:00 -3°C° 0 mm 2 m/s 752 mmHg 48%
    09:00 0°C° 0 mm 1 m/s 751 mmHg 44%
    10:00 +1°C° 0 mm 1 m/s 751 mmHg 39%
    11:00 +2°C° 0 mm 1 m/s 750 mmHg 34%
    12:00 +3°C° 0 mm 1 m/s 750 mmHg 33%
    13:00 +3°C° 0 mm 1 m/s 749 mmHg 33%
    14:00 +3°C° 0 mm 1 m/s 749 mmHg 32%
    15:00 +3°C° 0.1 mm 1 m/s 748 mmHg 40%
    16:00 +2°C° 0.1 mm 1 m/s 748 mmHg 47%
    17:00 +1°C° 0.1 mm 1 m/s 747 mmHg 55%
    18:00 +1°C° 0.1 mm 1 m/s 747 mmHg 62%
    19:00 0°C° 0.1 mm 1 m/s 747 mmHg 69%
    20:00 0°C° 0.1 mm 1 m/s 746 mmHg 75%
    21:00 0°C° 0 mm 1 m/s 746 mmHg 79%
    22:00 0°C° 0 mm 1 m/s 746 mmHg 82%
    23:00 0°C° 0 mm 1 m/s 746 mmHg 86%

    Demain, 19 Novembre, Lundi

    Heure Température Précipitation Vent Pression Humidité
    00:00 0°C° 0 mm 1 m/s 746 mmHg 86%
    01:00 -2°C° 0 mm 2 m/s 746 mmHg 86%
    02:00 -2°C° 0 mm 2 m/s 746 mmHg 86%
    03:00 -2°C° 0 mm 2 m/s 746 mmHg 85%
    04:00 -2°C° 0 mm 2 m/s 746 mmHg 85%
    05:00 -3°C° 0 mm 2 m/s 745 mmHg 84%
    06:00 -4°C° 0 mm 3 m/s 745 mmHg 82%
    07:00 -4°C° 0 mm 3 m/s 745 mmHg 79%
    08:00 -4°C° 0 mm 3 m/s 745 mmHg 77%
    09:00 -3°C° 0 mm 4 m/s 746 mmHg 71%
    10:00 -2°C° 0 mm 4 m/s 746 mmHg 64%
    11:00 -1°C° 0 mm 5 m/s 746 mmHg 57%
    12:00 -1°C° 0 mm 5 m/s 746 mmHg 57%
    13:00 -1°C° 0 mm 5 m/s 746 mmHg 57%
    14:00 0°C° 0 mm 5 m/s 746 mmHg 57%
    15:00 -1°C° 0 mm 4 m/s 746 mmHg 59%
    16:00 -2°C° 0 mm 4 m/s 746 mmHg 61%
    17:00 -2°C° 0 mm 4 m/s 746 mmHg 63%
    18:00 -3°C° 0 mm 4 m/s 747 mmHg 64%
    19:00 -3°C° 0 mm 4 m/s 747 mmHg 65%
    20:00 -3°C° 0 mm 4 m/s 747 mmHg 66%
    21:00 -3°C° 0 mm 4 m/s 747 mmHg 69%
    22:00 -4°C° 0 mm 4 m/s 748 mmHg 71%
    23:00 -4°C° 0 mm 4 m/s 748 mmHg 74%

    Après-demain, 20 Novembre, Mardi

    Heure Température Précipitation Vent Pression Humidité
    00:00 -4°C° 0 mm 4 m/s 748 mmHg 74%
    01:00 -4°C° 0 mm 4 m/s 748 mmHg 75%
    02:00 -5°C° 0 mm 4 m/s 748 mmHg 75%
    03:00 -5°C° 0 mm 4 m/s 748 mmHg 75%
    04:00 -5°C° 0 mm 4 m/s 748 mmHg 75%
    05:00 -5°C° 0 mm 4 m/s 748 mmHg 75%
    06:00 -5°C° 0 mm 4 m/s 748 mmHg 75%
    07:00 -5°C° 0 mm 4 m/s 748 mmHg 74%
    08:00 -5°C° 0 mm 4 m/s 748 mmHg 74%
    09:00 -5°C° 0 mm 5 m/s 748 mmHg 71%
    10:00 -4°C° 0 mm 5 m/s 748 mmHg 67%
    11:00 -2°C° 0 mm 5 m/s 748 mmHg 64%
    12:00 -2°C° 0 mm 6 m/s 747 mmHg 63%
    13:00 -2°C° 0 mm 6 m/s 747 mmHg 62%
    14:00 -1°C° 0 mm 6 m/s 746 mmHg 61%
    15:00 -2°C° 0 mm 6 m/s 746 mmHg 64%
    16:00 -2°C° 0 mm 6 m/s 746 mmHg 67%
    17:00 -3°C° 0 mm 6 m/s 745 mmHg 70%
    18:00 -3°C° 0 mm 6 m/s 745 mmHg 71%
    19:00 -3°C° 0 mm 6 m/s 745 mmHg 73%
    20:00 -3°C° 0 mm 6 m/s 745 mmHg 75%
    21:00 -3°C° 0 mm 6 m/s 745 mmHg 76%
    22:00 -4°C° 0 mm 6 m/s 745 mmHg 78%
    23:00 -4°C° 0 mm 6 m/s 745 mmHg 80%

    21 Novembre, Mercredi

    Heure Température Précipitation Vent Pression Humidité
    00:00 -3°C° 0 mm 6 m/s 745 mmHg 81%
    01:00 -3°C° 0 mm 6 m/s 745 mmHg 81%
    02:00 -3°C° 0 mm 6 m/s 745 mmHg 82%
    03:00 -3°C° 0.2 mm 6 m/s 745 mmHg 83%
    04:00 -3°C° 0.2 mm 6 m/s 745 mmHg 84%
    05:00 -3°C° 0.2 mm 6 m/s 745 mmHg 85%
    06:00 -3°C° 0.2 mm 6 m/s 746 mmHg 85%
    07:00 -4°C° 0.2 mm 6 m/s 746 mmHg 86%
    08:00 -4°C° 0.2 mm 6 m/s 746 mmHg 87%
    09:00 -3°C° 0.1 mm 6 m/s 746 mmHg 85%
    10:00 -3°C° 0.1 mm 6 m/s 746 mmHg 84%
    11:00 -3°C° 0.1 mm 6 m/s 747 mmHg 83%
    12:00 -2°C° 0 mm 5 m/s 747 mmHg 82%
    13:00 -1°C° 0 mm 5 m/s 747 mmHg 81%
    14:00 -1°C° 0 mm 5 m/s 747 mmHg 80%
    15:00 -1°C° 0 mm 5 m/s 747 mmHg 82%
    16:00 -2°C° 0 mm 5 m/s 747 mmHg 83%
    17:00 -2°C° 0 mm 5 m/s 747 mmHg 84%
    18:00 -4°C° 0 mm 5 m/s 747 mmHg 85%
    19:00 -4°C° 0 mm 5 m/s 748 mmHg 85%
    20:00 -4°C° 0 mm 5 m/s 748 mmHg 86%
    21:00 -4°C° 0 mm 5 m/s 748 mmHg 86%
    22:00 -4°C° 0 mm 4 m/s 748 mmHg 87%
    23:00 -4°C° 0 mm 4 m/s 748 mmHg 87%

    22 Novembre, Jeudi

    Heure Température Précipitation Vent Pression Humidité
    00:00 -4°C° 0 mm 4 m/s 749 mmHg 87%
    01:00 -4°C° 0 mm 4 m/s 749 mmHg 88%
    02:00 -4°C° 0 mm 4 m/s 749 mmHg 88%
    03:00 -4°C° 0 mm 4 m/s 749 mmHg 89%
    04:00 -4°C° 0 mm 4 m/s 749 mmHg 89%
    05:00 -4°C° 0 mm 4 m/s 749 mmHg 89%
    06:00 -4°C° 0 mm 4 m/s 749 mmHg 89%
    07:00 -4°C° 0 mm 4 m/s 749 mmHg 89%
    08:00 -4°C° 0 mm 4 m/s 749 mmHg 89%
    09:00 -4°C° 0 mm 4 m/s 750 mmHg 86%
    10:00 -3°C° 0 mm 4 m/s 750 mmHg 83%
    11:00 -2°C° 0 mm 4 m/s 750 mmHg 80%
    12:00 -2°C° 0 mm 4 m/s 750 mmHg 77%
    13:00 -1°C° 0 mm 4 m/s 750 mmHg 74%
    14:00 -1°C° 0 mm 4 m/s 750 mmHg 72%
    15:00 -2°C° 0 mm 4 m/s 750 mmHg 75%
    16:00 -3°C° 0 mm 4 m/s 750 mmHg 78%
    17:00 -2°C° 0 mm 3 m/s 751 mmHg 81%
    18:00 -4°C° 0 mm 3 m/s 751 mmHg 81%
    19:00 -4°C° 0 mm 4 m/s 751 mmHg 82%
    20:00 -4°C° 0 mm 4 m/s 751 mmHg 82%
    21:00 -4°C° 0 mm 3 m/s 752 mmHg 83%
    22:00 -5°C° 0 mm 3 m/s 752 mmHg 83%
    23:00 -5°C° 0 mm 3 m/s 752 mmHg 83%

    23 Novembre, Vendredi

    Heure Température Précipitation Vent Pression Humidité
    00:00 -5°C° 0 mm 3 m/s 752 mmHg 83%
    01:00 -5°C° 0 mm 3 m/s 752 mmHg 83%
    02:00 -5°C° 0 mm 3 m/s 752 mmHg 83%
    03:00 -5°C° 0 mm 3 m/s 752 mmHg 84%
    04:00 -5°C° 0 mm 3 m/s 752 mmHg 84%
    05:00 -5°C° 0 mm 3 m/s 752 mmHg 84%
    06:00 -5°C° 0 mm 3 m/s 752 mmHg 85%
    07:00 -5°C° 0 mm 3 m/s 752 mmHg 85%
    08:00 -5°C° 0 mm 3 m/s 752 mmHg 85%
    09:00 -4°C° 0 mm 3 m/s 753 mmHg 80%
    10:00 -2°C° 0 mm 3 m/s 753 mmHg 75%
    11:00 -2°C° 0 mm 4 m/s 753 mmHg 69%
    12:00 -1°C° 0 mm 4 m/s 753 mmHg 67%
    13:00 +1°C° 0 mm 3 m/s 752 mmHg 65%
    14:00 +1°C° 0 mm 3 m/s 752 mmHg 62%
    15:00 0°C° 0 mm 3 m/s 752 mmHg 67%
    16:00 -1°C° 0 mm 3 m/s 752 mmHg 72%
    17:00 -2°C° 0 mm 3 m/s 751 mmHg 77%
    18:00 -2°C° 0 mm 3 m/s 751 mmHg 78%
    19:00 -2°C° 0 mm 3 m/s 751 mmHg 80%
    20:00 -4°C° 0 mm 3 m/s 750 mmHg 81%
    21:00 -2°C° 0 mm 3 m/s 750 mmHg 83%
    22:00 -2°C° 0 mm 3 m/s 750 mmHg 84%
    23:00 -2°C° 0 mm 3 m/s 750 mmHg 86%
    Voir plus